owner,sensor,date,latitude,longitude,air_pressure(mBar),qcFlag 
TABS,ioos:station:wmo:42046:1,2015-12-01T00:00:00Z,27.8903,-94.0367,1015.19,11111222 
TABS,ioos:station:wmo:42046:1,2015-12-01T00:30:00Z,27.8903,-94.0367,1015.27,11111222 
TABS,ioos:station:wmo:42046:1,2015-12-01T01:00:00Z,27.8903,-94.0367,1015.43,11111222 
TABS,ioos:station:wmo:42046:1,2015-12-01T01:30:00Z,27.8903,-94.0367,1015.7,11111222 
TABS,ioos:station:wmo:42046:1,2015-12-01T02:00:00Z,27.8903,-94.0367,1015.84,11111222 
TABS,ioos:station:wmo:42046:1,2015-12-01T02:30:00Z,27.8903,-94.0367,1015.97,11111222 
TABS,ioos:station:wmo:42046:1,2015-12-01T03:00:00Z,27.8903,-94.0367,1015.66,11111222 
TABS,ioos:station:wmo:42046:1,2015-12-01T03:30:00Z,27.8903,-94.0367,1015.5,11111222 
TABS,ioos:station:wmo:42046:1,2015-12-01T04:00:00Z,27.8903,-94.0367,1015.6,11111222 
TABS,ioos:station:wmo:42046:1,2015-12-01T04:30:00Z,27.8903,-94.0367,1015.56,11111222 
TABS,ioos:station:wmo:42046:1,2015-12-01T05:00:00Z,27.8903,-94.0367,1015.3,11111222 
TABS,ioos:station:wmo:42046:1,2015-12-01T05:30:00Z,27.8903,-94.0367,1014.53,11111222 
TABS,ioos:station:wmo:42046:1,2015-12-01T06:00:00Z,27.8903,-94.0367,1014.57,11111222 
TABS,ioos:station:wmo:42046:1,2015-12-01T06:30:00Z,27.8903,-94.0367,1014.49,11111222 
TABS,ioos:station:wmo:42046:1,2015-12-01T07:00:00Z,27.8903,-94.0367,1014.34,11111222 
TABS,ioos:station:wmo:42046:1,2015-12-01T07:30:00Z,27.8903,-94.0367,1014.16,11111222 
TABS,ioos:station:wmo:42046:1,2015-12-01T08:00:00Z,27.8903,-94.0367,1014.06,11111222 
TABS,ioos:station:wmo:42046:1,2015-12-01T08:30:00Z,27.8903,-94.0367,1014.13,11111222 
TABS,ioos:station:wmo:42046:1,2015-12-01T09:00:00Z,27.8903,-94.0367,1014.03,11111222 
TABS,ioos:station:wmo:42046:1,2015-12-01T09:30:00Z,27.8903,-94.0367,1014.02,11111222 
TABS,ioos:station:wmo:42046:1,2015-12-01T10:00:00Z,27.8903,-94.0367,1013.8,11111222 
TABS,ioos:station:wmo:42046:1,2015-12-01T10:30:00Z,27.8903,-94.0367,1013.61,11111222 
TABS,ioos:station:wmo:42046:1,2015-12-01T11:00:00Z,27.8903,-94.0367,1013.83,11111222 
TABS,ioos:station:wmo:42046:1,2015-12-01T11:30:00Z,27.8903,-94.0367,1014.09,11111222 
TABS,ioos:station:wmo:42046:1,2015-12-01T12:00:00Z,27.8903,-94.0367,1014.2,11111222 
TABS,ioos:station:wmo:42046:1,2015-12-01T12:30:00Z,27.8903,-94.0367,1014.36,11111222 
TABS,ioos:station:wmo:42046:1,2015-12-01T13:00:00Z,27.8903,-94.0367,1014.47,11111222 
TABS,ioos:station:wmo:42046:1,2015-12-01T13:30:00Z,27.8903,-94.0367,1014.85,11111222 
TABS,ioos:station:wmo:42046:1,2015-12-01T14:00:00Z,27.8903,-94.0367,1015.15,11111222 
TABS,ioos:station:wmo:42046:1,2015-12-01T14:30:00Z,27.8903,-94.0367,1015.28,11111222 
TABS,ioos:station:wmo:42046:1,2015-12-01T15:00:00Z,27.8903,-94.0367,1015.63,11111222 
TABS,ioos:station:wmo:42046:1,2015-12-01T15:30:00Z,27.8903,-94.0367,1015.66,11111222 
TABS,ioos:station:wmo:42046:1,2015-12-01T16:00:00Z,27.8903,-94.0367,1015.81,11111222 
TABS,ioos:station:wmo:42046:1,2015-12-01T16:30:00Z,27.8903,-94.0367,1015.37,11111222 
TABS,ioos:station:wmo:42046:1,2015-12-01T17:00:00Z,27.8903,-94.0367,1015.06,11111222 
TABS,ioos:station:wmo:42046:1,2015-12-01T17:30:00Z,27.8903,-94.0367,1014.72,11111222 
TABS,ioos:station:wmo:42046:1,2015-12-01T18:00:00Z,27.8903,-94.0367,1014.23,11111222 
TABS,ioos:station:wmo:42046:1,2015-12-01T18:30:00Z,27.8903,-94.0367,1013.8,11111222 
TABS,ioos:station:wmo:42046:1,2015-12-01T19:00:00Z,27.8903,-94.0367,1013.33,11111222 
TABS,ioos:station:wmo:42046:1,2015-12-01T19:30:00Z,27.8903,-94.0367,1013.07,11111222 
TABS,ioos:station:wmo:42046:1,2015-12-01T20:00:00Z,27.8903,-94.0367,1012.66,11111222 
TABS,ioos:station:wmo:42046:1,2015-12-01T20:30:00Z,27.8903,-94.0367,1012.73,11111222 
TABS,ioos:station:wmo:42046:1,2015-12-01T21:00:00Z,27.8903,-94.0367,1012.65,11111222 
TABS,ioos:station:wmo:42046:1,2015-12-01T21:30:00Z,27.8903,-94.0367,1013.03,11111222 
TABS,ioos:station:wmo:42046:1,2015-12-01T22:00:00Z,27.8903,-94.0367,1013.13,11111222 
TABS,ioos:station:wmo:42046:1,2015-12-01T22:30:00Z,27.8903,-94.0367,1013.3,11111222 
TABS,ioos:station:wmo:42046:1,2015-12-01T23:00:00Z,27.8903,-94.0367,1013.36,11111222 
TABS,ioos:station:wmo:42046:1,2015-12-01T23:30:00Z,27.8903,-94.0367,1013.15,11111222 
TABS,ioos:station:wmo:42046:1,2015-12-02T00:00:00Z,27.8903,-94.0367,1013.72,11111222 
TABS,ioos:station:wmo:42046:1,2015-12-02T00:30:00Z,27.8903,-94.0367,1013.8,11111222 
TABS,ioos:station:wmo:42046:1,2015-12-02T01:00:00Z,27.8903,-94.0367,1013.88,11111222 
TABS,ioos:station:wmo:42046:1,2015-12-02T01:30:00Z,27.8903,-94.0367,1013.82,11111222 
TABS,ioos:station:wmo:42046:1,2015-12-02T02:00:00Z,27.8903,-94.0367,1014.22,11111222 
TABS,ioos:station:wmo:42046:1,2015-12-02T02:30:00Z,27.8903,-94.0367,1014.42,11111222 
TABS,ioos:station:wmo:42046:1,2015-12-02T03:00:00Z,27.8903,-94.0367,1014.06,11111222 
TABS,ioos:station:wmo:42046:1,2015-12-02T03:30:00Z,27.8903,-94.0367,1013.93,11111222 
TABS,ioos:station:wmo:42046:1,2015-12-02T04:00:00Z,27.8903,-94.0367,1013.81,11111222 
TABS,ioos:station:wmo:42046:1,2015-12-02T04:30:00Z,27.8903,-94.0367,1014.04,11111222 
TABS,ioos:station:wmo:42046:1,2015-12-02T05:00:00Z,27.8903,-94.0367,1013.83,11111222 
TABS,ioos:station:wmo:42046:1,2015-12-02T05:30:00Z,27.8903,-94.0367,1014.08,11111222 
TABS,ioos:station:wmo:42046:1,2015-12-02T06:00:00Z,27.8903,-94.0367,1013.94,11111222 
TABS,ioos:station:wmo:42046:1,2015-12-02T06:30:00Z,27.8903,-94.0367,1014.03,11111222 
TABS,ioos:station:wmo:42046:1,2015-12-02T07:00:00Z,27.8903,-94.0367,1013.74,11111222 
TABS,ioos:station:wmo:42046:1,2015-12-02T07:30:00Z,27.8903,-94.0367,1013.59,11111222 
TABS,ioos:station:wmo:42046:1,2015-12-02T08:00:00Z,27.8903,-94.0367,1013.57,11111222 
TABS,ioos:station:wmo:42046:1,2015-12-02T08:30:00Z,27.8903,-94.0367,1013.2,11111222 
TABS,ioos:station:wmo:42046:1,2015-12-02T09:00:00Z,27.8903,-94.0367,1013.67,11111222 
TABS,ioos:station:wmo:42046:1,2015-12-02T09:30:00Z,27.8903,-94.0367,1013.43,11111222 
TABS,ioos:station:wmo:42046:1,2015-12-02T10:00:00Z,27.8903,-94.0367,1013.45,11111222 
TABS,ioos:station:wmo:42046:1,2015-12-02T10:30:00Z,27.8903,-94.0367,1013.6,11111222 
TABS,ioos:station:wmo:42046:1,2015-12-02T11:00:00Z,27.8903,-94.0367,1013.6,11111222 
TABS,ioos:station:wmo:42046:1,2015-12-02T11:30:00Z,27.8903,-94.0367,1014.29,11111222 
TABS,ioos:station:wmo:42046:1,2015-12-02T12:00:00Z,27.8903,-94.0367,1014.81,11111222 
TABS,ioos:station:wmo:42046:1,2015-12-02T12:30:00Z,27.8903,-94.0367,1015.19,11111222 
TABS,ioos:station:wmo:42046:1,2015-12-02T13:00:00Z,27.8903,-94.0367,1015.89,11111222 
TABS,ioos:station:wmo:42046:1,2015-12-02T13:30:00Z,27.8903,-94.0367,1016.19,11111222 
TABS,ioos:station:wmo:42046:1,2015-12-02T14:00:00Z,27.8903,-94.0367,1017.07,11111222 
TABS,ioos:station:wmo:42046:1,2015-12-02T14:30:00Z,27.8903,-94.0367,1017.26,11111222 
TABS,ioos:station:wmo:42046:1,2015-12-02T15:00:00Z,27.8903,-94.0367,1017.87,11111222 
TABS,ioos:station:wmo:42046:1,2015-12-02T15:30:00Z,27.8903,-94.0367,1017.96,11111222 
TABS,ioos:station:wmo:42046:1,2015-12-02T16:00:00Z,27.8903,-94.0367,1018.51,11111222 
TABS,ioos:station:wmo:42046:1,2015-12-02T16:30:00Z,27.8903,-94.0367,1018.05,11111222 
TABS,ioos:station:wmo:42046:1,2015-12-02T17:00:00Z,27.8903,-94.0367,1017.76,11111222 
TABS,ioos:station:wmo:42046:1,2015-12-02T17:30:00Z,27.8903,-94.0367,1017.8,11111222 
TABS,ioos:station:wmo:42046:1,2015-12-02T18:00:00Z,27.8903,-94.0367,1017.07,11111222 
TABS,ioos:station:wmo:42046:1,2015-12-02T18:30:00Z,27.8903,-94.0367,1017.27,11111222 
TABS,ioos:station:wmo:42046:1,2015-12-02T19:00:00Z,27.8903,-94.0367,1017.1,11111222 
TABS,ioos:station:wmo:42046:1,2015-12-02T19:30:00Z,27.8903,-94.0367,1016.64,11111222 
TABS,ioos:station:wmo:42046:1,2015-12-02T20:00:00Z,27.8903,-94.0367,1017.18,11111222 
TABS,ioos:station:wmo:42046:1,2015-12-02T20:30:00Z,27.8903,-94.0367,1017.42,11111222 
TABS,ioos:station:wmo:42046:1,2015-12-02T21:00:00Z,27.8903,-94.0367,1017.37,11111222 
TABS,ioos:station:wmo:42046:1,2015-12-02T21:30:00Z,27.8903,-94.0367,1017.52,11111222 
TABS,ioos:station:wmo:42046:1,2015-12-02T22:00:00Z,27.8903,-94.0367,1017.97,11111222 
TABS,ioos:station:wmo:42046:1,2015-12-02T22:30:00Z,27.8903,-94.0367,1018.18,11111222 
TABS,ioos:station:wmo:42046:1,2015-12-02T23:00:00Z,27.8903,-94.0367,1018.84,11111222 
TABS,ioos:station:wmo:42046:1,2015-12-02T23:30:00Z,27.8903,-94.0367,1018.53,11111222 
TABS,ioos:station:wmo:42046:1,2015-12-03T00:00:00Z,27.8903,-94.0367,1018.74,11111222 
TABS,ioos:station:wmo:42046:1,2015-12-03T00:30:00Z,27.8903,-94.0367,1019.63,11111222 
TABS,ioos:station:wmo:42046:1,2015-12-03T01:00:00Z,27.8903,-94.0367,1020.08,11111222 
TABS,ioos:station:wmo:42046:1,2015-12-03T01:30:00Z,27.8903,-94.0367,1020.45,11111222 
TABS,ioos:station:wmo:42046:1,2015-12-03T02:00:00Z,27.8903,-94.0367,1021.02,11111222 
TABS,ioos:station:wmo:42046:1,2015-12-03T02:30:00Z,27.8903,-94.0367,1021.34,11111222 
TABS,ioos:station:wmo:42046:1,2015-12-03T03:00:00Z,27.8903,-94.0367,1021.38,11111222 
TABS,ioos:station:wmo:42046:1,2015-12-03T03:30:00Z,27.8903,-94.0367,1021.74,11111222 
TABS,ioos:station:wmo:42046:1,2015-12-03T04:00:00Z,27.8903,-94.0367,1022.3,11111222 
TABS,ioos:station:wmo:42046:1,2015-12-03T04:30:00Z,27.8903,-94.0367,1022.02,11111222 
TABS,ioos:station:wmo:42046:1,2015-12-03T05:00:00Z,27.8903,-94.0367,1021.88,11111222 
TABS,ioos:station:wmo:42046:1,2015-12-03T05:30:00Z,27.8903,-94.0367,1021.89,11111222 
TABS,ioos:station:wmo:42046:1,2015-12-03T06:00:00Z,27.8903,-94.0367,1021.82,11111222 
TABS,ioos:station:wmo:42046:1,2015-12-03T06:30:00Z,27.8903,-94.0367,1021.99,11111222 
TABS,ioos:station:wmo:42046:1,2015-12-03T07:00:00Z,27.8903,-94.0367,1022.7,11111222 
TABS,ioos:station:wmo:42046:1,2015-12-03T07:30:00Z,27.8903,-94.0367,1022.87,11111222 
TABS,ioos:station:wmo:42046:1,2015-12-03T08:00:00Z,27.8903,-94.0367,1022.71,11111222 
TABS,ioos:station:wmo:42046:1,2015-12-03T08:30:00Z,27.8903,-94.0367,1022.41,11111222 
TABS,ioos:station:wmo:42046:1,2015-12-03T09:00:00Z,27.8903,-94.0367,1022.46,11111222 
TABS,ioos:station:wmo:42046:1,2015-12-03T09:30:00Z,27.8903,-94.0367,1022.84,11111222 
TABS,ioos:station:wmo:42046:1,2015-12-03T10:00:00Z,27.8903,-94.0367,1022.75,11111222 
TABS,ioos:station:wmo:42046:1,2015-12-03T10:30:00Z,27.8903,-94.0367,1022.97,11111222 
TABS,ioos:station:wmo:42046:1,2015-12-03T11:00:00Z,27.8903,-94.0367,1022.76,11111222 
TABS,ioos:station:wmo:42046:1,2015-12-03T11:30:00Z,27.8903,-94.0367,1023.36,11111222 
TABS,ioos:station:wmo:42046:1,2015-12-03T12:00:00Z,27.8903,-94.0367,1023.16,11111222 
TABS,ioos:station:wmo:42046:1,2015-12-03T12:30:00Z,27.8903,-94.0367,1023.63,11111222 
TABS,ioos:station:wmo:42046:1,2015-12-03T13:00:00Z,27.8903,-94.0367,1024.13,11111222 
TABS,ioos:station:wmo:42046:1,2015-12-03T13:30:00Z,27.8903,-94.0367,1024.79,11111222 
TABS,ioos:station:wmo:42046:1,2015-12-03T14:00:00Z,27.8903,-94.0367,1025.13,11111222 
TABS,ioos:station:wmo:42046:1,2015-12-03T14:30:00Z,27.8903,-94.0367,1025.66,11111222 
TABS,ioos:station:wmo:42046:1,2015-12-03T15:00:00Z,27.8903,-94.0367,1026.05,11111222 
TABS,ioos:station:wmo:42046:1,2015-12-03T15:30:00Z,27.8903,-94.0367,1026.56,11111222 
TABS,ioos:station:wmo:42046:1,2015-12-03T16:00:00Z,27.8903,-94.0367,1026.32,11111222 
TABS,ioos:station:wmo:42046:1,2015-12-03T16:30:00Z,27.8903,-94.0367,1026.56,11111222 
TABS,ioos:station:wmo:42046:1,2015-12-03T17:00:00Z,27.8903,-94.0367,1026.06,11111222 
TABS,ioos:station:wmo:42046:1,2015-12-03T17:30:00Z,27.8903,-94.0367,1025.9,11111222 
TABS,ioos:station:wmo:42046:1,2015-12-03T18:00:00Z,27.8903,-94.0367,1025.82,11111222 
TABS,ioos:station:wmo:42046:1,2015-12-03T18:30:00Z,27.8903,-94.0367,1025.86,11111222 
TABS,ioos:station:wmo:42046:1,2015-12-03T19:00:00Z,27.8903,-94.0367,1025.13,11111222 
TABS,ioos:station:wmo:42046:1,2015-12-03T19:30:00Z,27.8903,-94.0367,1024.67,11111222 
TABS,ioos:station:wmo:42046:1,2015-12-03T20:00:00Z,27.8903,-94.0367,1024.82,11111222 
TABS,ioos:station:wmo:42046:1,2015-12-03T20:30:00Z,27.8903,-94.0367,1024.96,11111222 
TABS,ioos:station:wmo:42046:1,2015-12-03T21:00:00Z,27.8903,-94.0367,1024.8,11111222 
TABS,ioos:station:wmo:42046:1,2015-12-03T21:30:00Z,27.8903,-94.0367,1024.71,11111222 
TABS,ioos:station:wmo:42046:1,2015-12-03T22:00:00Z,27.8903,-94.0367,1025.05,11111222 
TABS,ioos:station:wmo:42046:1,2015-12-03T22:30:00Z,27.8903,-94.0367,1025.35,11111222 
TABS,ioos:station:wmo:42046:1,2015-12-03T23:00:00Z,27.8903,-94.0367,1025.52,11111222 
TABS,ioos:station:wmo:42046:1,2015-12-03T23:30:00Z,27.8903,-94.0367,1025.57,11111222 
TABS,ioos:station:wmo:42046:1,2015-12-04T00:00:00Z,27.8903,-94.0367,1025.89,11111222 
TABS,ioos:station:wmo:42046:1,2015-12-04T00:30:00Z,27.8903,-94.0367,1025.98,11111222 
TABS,ioos:station:wmo:42046:1,2015-12-04T01:00:00Z,27.8903,-94.0367,1026.51,11111222 
TABS,ioos:station:wmo:42046:1,2015-12-04T01:30:00Z,27.8903,-94.0367,1026.63,11111222 
TABS,ioos:station:wmo:42046:1,2015-12-04T02:00:00Z,27.8903,-94.0367,1026.94,11111222 
TABS,ioos:station:wmo:42046:1,2015-12-04T02:30:00Z,27.8903,-94.0367,1026.99,11111222 
TABS,ioos:station:wmo:42046:1,2015-12-04T03:00:00Z,27.8903,-94.0367,1027.25,11111222 
TABS,ioos:station:wmo:42046:1,2015-12-04T03:30:00Z,27.8903,-94.0367,1027.38,11111222 
TABS,ioos:station:wmo:42046:1,2015-12-04T04:00:00Z,27.8903,-94.0367,1027.34,11111222 
TABS,ioos:station:wmo:42046:1,2015-12-04T04:30:00Z,27.8903,-94.0367,1027.2,11111222 
TABS,ioos:station:wmo:42046:1,2015-12-04T05:00:00Z,27.8903,-94.0367,1027.19,11111222 
TABS,ioos:station:wmo:42046:1,2015-12-04T05:30:00Z,27.8903,-94.0367,1027.23,11111222 
TABS,ioos:station:wmo:42046:1,2015-12-04T06:00:00Z,27.8903,-94.0367,1026.99,11111222 
TABS,ioos:station:wmo:42046:1,2015-12-04T06:30:00Z,27.8903,-94.0367,1027.1,11111222 
TABS,ioos:station:wmo:42046:1,2015-12-04T07:00:00Z,27.8903,-94.0367,1026.95,11111222 
TABS,ioos:station:wmo:42046:1,2015-12-04T07:30:00Z,27.8903,-94.0367,1026.99,11111222 
TABS,ioos:station:wmo:42046:1,2015-12-04T08:00:00Z,27.8903,-94.0367,1026.89,11111222 
TABS,ioos:station:wmo:42046:1,2015-12-04T08:30:00Z,27.8903,-94.0367,1026.88,11111222 
TABS,ioos:station:wmo:42046:1,2015-12-04T09:00:00Z,27.8903,-94.0367,1026.74,11111222 
TABS,ioos:station:wmo:42046:1,2015-12-04T09:30:00Z,27.8903,-94.0367,1027.07,11111222 
TABS,ioos:station:wmo:42046:1,2015-12-04T10:00:00Z,27.8903,-94.0367,1026.94,11111222 
TABS,ioos:station:wmo:42046:1,2015-12-04T10:30:00Z,27.8903,-94.0367,1027.13,11111222 
TABS,ioos:station:wmo:42046:1,2015-12-04T11:00:00Z,27.8903,-94.0367,1027.5,11111222 
TABS,ioos:station:wmo:42046:1,2015-12-04T11:30:00Z,27.8903,-94.0367,1027.86,11111222 
TABS,ioos:station:wmo:42046:1,2015-12-04T12:00:00Z,27.8903,-94.0367,1028.13,11111222 
TABS,ioos:station:wmo:42046:1,2015-12-04T12:30:00Z,27.8903,-94.0367,1028.41,11111222 
TABS,ioos:station:wmo:42046:1,2015-12-04T13:00:00Z,27.8903,-94.0367,1028.83,11111222 
TABS,ioos:station:wmo:42046:1,2015-12-04T13:30:00Z,27.8903,-94.0367,1029.15,11111222 
TABS,ioos:station:wmo:42046:1,2015-12-04T14:00:00Z,27.8903,-94.0367,1029.36,11111222 
TABS,ioos:station:wmo:42046:1,2015-12-04T14:30:00Z,27.8903,-94.0367,1029.53,11111222 
TABS,ioos:station:wmo:42046:1,2015-12-04T15:00:00Z,27.8903,-94.0367,1029.85,11111222 
TABS,ioos:station:wmo:42046:1,2015-12-04T15:30:00Z,27.8903,-94.0367,1030.17,11111222 
TABS,ioos:station:wmo:42046:1,2015-12-04T16:00:00Z,27.8903,-94.0367,1030.43,11111222 
TABS,ioos:station:wmo:42046:1,2015-12-04T16:30:00Z,27.8903,-94.0367,1030.23,11111222 
TABS,ioos:station:wmo:42046:1,2015-12-04T17:00:00Z,27.8903,-94.0367,1030.36,11111222 
TABS,ioos:station:wmo:42046:1,2015-12-04T17:30:00Z,27.8903,-94.0367,1029.99,11111222 
TABS,ioos:station:wmo:42046:1,2015-12-04T18:00:00Z,27.8903,-94.0367,1029.39,11111222 
TABS,ioos:station:wmo:42046:1,2015-12-04T18:30:00Z,27.8903,-94.0367,1028.9,11111222 
TABS,ioos:station:wmo:42046:1,2015-12-04T19:00:00Z,27.8903,-94.0367,1028.54,11111222 
TABS,ioos:station:wmo:42046:1,2015-12-04T19:30:00Z,27.8903,-94.0367,1028.1,11111222 
TABS,ioos:station:wmo:42046:1,2015-12-04T20:00:00Z,27.8903,-94.0367,1027.91,11111222 
TABS,ioos:station:wmo:42046:1,2015-12-04T20:30:00Z,27.8903,-94.0367,1028.03,11111222 
TABS,ioos:station:wmo:42046:1,2015-12-04T21:00:00Z,27.8903,-94.0367,1028.02,11111222 
TABS,ioos:station:wmo:42046:1,2015-12-04T21:30:00Z,27.8903,-94.0367,1028.03,11111222 
TABS,ioos:station:wmo:42046:1,2015-12-04T22:00:00Z,27.8903,-94.0367,1028.12,11111222 
TABS,ioos:station:wmo:42046:1,2015-12-04T22:30:00Z,27.8903,-94.0367,1028.36,11111222 
TABS,ioos:station:wmo:42046:1,2015-12-04T23:00:00Z,27.8903,-94.0367,1028.43,11111222 
TABS,ioos:station:wmo:42046:1,2015-12-04T23:30:00Z,27.8903,-94.0367,1028.44,11111222 
TABS,ioos:station:wmo:42046:1,2015-12-05T00:00:00Z,27.8903,-94.0367,1028.75,11111222 
TABS,ioos:station:wmo:42046:1,2015-12-05T00:30:00Z,27.8903,-94.0367,1028.97,11111222 
TABS,ioos:station:wmo:42046:1,2015-12-05T01:00:00Z,27.8903,-94.0367,1029.14,11111222 
TABS,ioos:station:wmo:42046:1,2015-12-05T01:30:00Z,27.8903,-94.0367,1029.42,11111222 
TABS,ioos:station:wmo:42046:1,2015-12-05T02:00:00Z,27.8903,-94.0367,1029.42,11111222 
TABS,ioos:station:wmo:42046:1,2015-12-05T02:30:00Z,27.8903,-94.0367,1029.38,11111222 
TABS,ioos:station:wmo:42046:1,2015-12-05T03:00:00Z,27.8903,-94.0367,1029.52,11111222 
TABS,ioos:station:wmo:42046:1,2015-12-05T03:30:00Z,27.8903,-94.0367,1029.88,11111222 
TABS,ioos:station:wmo:42046:1,2015-12-05T04:00:00Z,27.8903,-94.0367,1029.84,11111222 
TABS,ioos:station:wmo:42046:1,2015-12-05T04:30:00Z,27.8903,-94.0367,1029.78,11111222 
TABS,ioos:station:wmo:42046:1,2015-12-05T05:00:00Z,27.8903,-94.0367,1029.78,11111222 
TABS,ioos:station:wmo:42046:1,2015-12-05T05:30:00Z,27.8903,-94.0367,1029.46,11111222 
TABS,ioos:station:wmo:42046:1,2015-12-05T06:00:00Z,27.8903,-94.0367,1029.37,11111222 
TABS,ioos:station:wmo:42046:1,2015-12-05T06:30:00Z,27.8903,-94.0367,1029.07,11111222 
TABS,ioos:station:wmo:42046:1,2015-12-05T07:00:00Z,27.8903,-94.0367,1029.09,11111222 
TABS,ioos:station:wmo:42046:1,2015-12-05T07:30:00Z,27.8903,-94.0367,1028.79,11111222 
TABS,ioos:station:wmo:42046:1,2015-12-05T08:00:00Z,27.8903,-94.0367,1028.64,11111222 
TABS,ioos:station:wmo:42046:1,2015-12-05T08:30:00Z,27.8903,-94.0367,1028.68,11111222 
TABS,ioos:station:wmo:42046:1,2015-12-05T09:00:00Z,27.8903,-94.0367,1028.62,11111222 
TABS,ioos:station:wmo:42046:1,2015-12-05T09:30:00Z,27.8903,-94.0367,1028.75,11111222 
TABS,ioos:station:wmo:42046:1,2015-12-05T10:00:00Z,27.8903,-94.0367,1028.67,11111222 
TABS,ioos:station:wmo:42046:1,2015-12-05T10:30:00Z,27.8903,-94.0367,1028.77,11111222 
TABS,ioos:station:wmo:42046:1,2015-12-05T11:00:00Z,27.8903,-94.0367,1028.88,11111222 
TABS,ioos:station:wmo:42046:1,2015-12-05T11:30:00Z,27.8903,-94.0367,1029.01,11111222 
TABS,ioos:station:wmo:42046:1,2015-12-05T12:00:00Z,27.8903,-94.0367,1029.09,11111222 
TABS,ioos:station:wmo:42046:1,2015-12-05T12:30:00Z,27.8903,-94.0367,1029.35,11111222 
TABS,ioos:station:wmo:42046:1,2015-12-05T13:00:00Z,27.8903,-94.0367,1029.6,11111222 
TABS,ioos:station:wmo:42046:1,2015-12-05T13:30:00Z,27.8903,-94.0367,1029.78,11111222 
TABS,ioos:station:wmo:42046:1,2015-12-05T14:00:00Z,27.8903,-94.0367,1029.76,11111222 
TABS,ioos:station:wmo:42046:1,2015-12-05T14:30:00Z,27.8903,-94.0367,1029.77,11111222 
TABS,ioos:station:wmo:42046:1,2015-12-05T15:00:00Z,27.8903,-94.0367,1030.22,11111222 
TABS,ioos:station:wmo:42046:1,2015-12-05T15:30:00Z,27.8903,-94.0367,1030.5,11111222 
TABS,ioos:station:wmo:42046:1,2015-12-05T16:00:00Z,27.8903,-94.0367,1030.5,11111222 
TABS,ioos:station:wmo:42046:1,2015-12-05T16:30:00Z,27.8903,-94.0367,1030.65,11111222 
TABS,ioos:station:wmo:42046:1,2015-12-05T17:00:00Z,27.8903,-94.0367,1030.42,11111222 
TABS,ioos:station:wmo:42046:1,2015-12-05T17:30:00Z,27.8903,-94.0367,1030.05,11111222 
TABS,ioos:station:wmo:42046:1,2015-12-05T18:00:00Z,27.8903,-94.0367,1029.53,11111222 
TABS,ioos:station:wmo:42046:1,2015-12-05T18:30:00Z,27.8903,-94.0367,1029.02,11111222 
TABS,ioos:station:wmo:42046:1,2015-12-05T19:00:00Z,27.8903,-94.0367,1028.66,11111222 
TABS,ioos:station:wmo:42046:1,2015-12-05T19:30:00Z,27.8903,-94.0367,1028.38,11111222 
TABS,ioos:station:wmo:42046:1,2015-12-05T20:00:00Z,27.8903,-94.0367,1027.88,11111222 
TABS,ioos:station:wmo:42046:1,2015-12-05T20:30:00Z,27.8903,-94.0367,1027.71,11111222 
TABS,ioos:station:wmo:42046:1,2015-12-05T21:00:00Z,27.8903,-94.0367,1027.51,11111222 
TABS,ioos:station:wmo:42046:1,2015-12-05T21:30:00Z,27.8903,-94.0367,1027.52,11111222 
TABS,ioos:station:wmo:42046:1,2015-12-05T22:00:00Z,27.8903,-94.0367,1027.46,11111222 
TABS,ioos:station:wmo:42046:1,2015-12-05T22:30:00Z,27.8903,-94.0367,1027.59,11111222 
TABS,ioos:station:wmo:42046:1,2015-12-05T23:00:00Z,27.8903,-94.0367,1027.59,11111222 
TABS,ioos:station:wmo:42046:1,2015-12-05T23:30:00Z,27.8903,-94.0367,1028.07,11111222 
TABS,ioos:station:wmo:42046:1,2015-12-06T00:00:00Z,27.8903,-94.0367,1028.14,11111222 
TABS,ioos:station:wmo:42046:1,2015-12-06T00:30:00Z,27.8903,-94.0367,1028.41,11111222 
TABS,ioos:station:wmo:42046:1,2015-12-06T01:00:00Z,27.8903,-94.0367,1028.89,11111222 
TABS,ioos:station:wmo:42046:1,2015-12-06T01:30:00Z,27.8903,-94.0367,1029.0,11111222 
TABS,ioos:station:wmo:42046:1,2015-12-06T02:00:00Z,27.8903,-94.0367,1029.23,11111222 
TABS,ioos:station:wmo:42046:1,2015-12-06T02:30:00Z,27.8903,-94.0367,1029.29,11111222 
TABS,ioos:station:wmo:42046:1,2015-12-06T03:00:00Z,27.8903,-94.0367,1029.37,11111222 
TABS,ioos:station:wmo:42046:1,2015-12-06T03:30:00Z,27.8903,-94.0367,1029.42,11111222 
TABS,ioos:station:wmo:42046:1,2015-12-06T04:00:00Z,27.8903,-94.0367,1029.21,11111222 
TABS,ioos:station:wmo:42046:1,2015-12-06T04:30:00Z,27.8903,-94.0367,1029.18,11111222 
TABS,ioos:station:wmo:42046:1,2015-12-06T05:00:00Z,27.8903,-94.0367,1028.92,11111222 
TABS,ioos:station:wmo:42046:1,2015-12-06T05:30:00Z,27.8903,-94.0367,1028.64,11111222 
TABS,ioos:station:wmo:42046:1,2015-12-06T06:00:00Z,27.8903,-94.0367,1028.34,11111222 
TABS,ioos:station:wmo:42046:1,2015-12-06T06:30:00Z,27.8903,-94.0367,1027.98,11111222 
TABS,ioos:station:wmo:42046:1,2015-12-06T07:00:00Z,27.8903,-94.0367,1027.52,11111222 
TABS,ioos:station:wmo:42046:1,2015-12-06T07:30:00Z,27.8903,-94.0367,1027.53,11111222 
TABS,ioos:station:wmo:42046:1,2015-12-06T08:00:00Z,27.8903,-94.0367,1027.52,11111222 
TABS,ioos:station:wmo:42046:1,2015-12-06T08:30:00Z,27.8903,-94.0367,1027.54,11111222 
TABS,ioos:station:wmo:42046:1,2015-12-06T09:00:00Z,27.8903,-94.0367,1027.53,11111222 
TABS,ioos:station:wmo:42046:1,2015-12-06T09:30:00Z,27.8903,-94.0367,1027.5,11111222 
TABS,ioos:station:wmo:42046:1,2015-12-06T10:00:00Z,27.8903,-94.0367,1027.46,11111222 
TABS,ioos:station:wmo:42046:1,2015-12-06T10:30:00Z,27.8903,-94.0367,1027.47,11111222 
TABS,ioos:station:wmo:42046:1,2015-12-06T11:00:00Z,27.8903,-94.0367,1027.67,11111222 
TABS,ioos:station:wmo:42046:1,2015-12-06T11:30:00Z,27.8903,-94.0367,1027.81,11111222 
TABS,ioos:station:wmo:42046:1,2015-12-06T12:00:00Z,27.8903,-94.0367,1027.82,11111222 
TABS,ioos:station:wmo:42046:1,2015-12-06T12:30:00Z,27.8903,-94.0367,1028.14,11111222 
TABS,ioos:station:wmo:42046:1,2015-12-06T13:00:00Z,27.8903,-94.0367,1028.44,11111222 
TABS,ioos:station:wmo:42046:1,2015-12-06T13:30:00Z,27.8903,-94.0367,1028.84,11111222 
TABS,ioos:station:wmo:42046:1,2015-12-06T14:00:00Z,27.8903,-94.0367,1028.61,11111222 
TABS,ioos:station:wmo:42046:1,2015-12-06T14:30:00Z,27.8903,-94.0367,1028.82,11111222 
TABS,ioos:station:wmo:42046:1,2015-12-06T15:00:00Z,27.8903,-94.0367,1028.99,11111222 
TABS,ioos:station:wmo:42046:1,2015-12-06T15:30:00Z,27.8903,-94.0367,1029.14,11111222 
TABS,ioos:station:wmo:42046:1,2015-12-06T16:00:00Z,27.8903,-94.0367,1029.21,11111222 
TABS,ioos:station:wmo:42046:1,2015-12-06T16:30:00Z,27.8903,-94.0367,1029.16,11111222 
TABS,ioos:station:wmo:42046:1,2015-12-06T17:00:00Z,27.8903,-94.0367,1028.94,11111222 
TABS,ioos:station:wmo:42046:1,2015-12-06T17:30:00Z,27.8903,-94.0367,1028.34,11111222 
TABS,ioos:station:wmo:42046:1,2015-12-06T18:00:00Z,27.8903,-94.0367,1027.82,11111222 
TABS,ioos:station:wmo:42046:1,2015-12-06T18:30:00Z,27.8903,-94.0367,1027.11,11111222 